• In Österreich
  • Länderverzeichnis
  • Für 7 Tage
  • Wassertemperatur
  • Satellitenkarten
  • Wetterkarte
  • News
  • Widgets
  • user-avatar
    Anmelden

    Stündliche Wetter Quito

    Heute, 26 Mai, Samstag

    Zeit Temperatur Niederschläge Wind Luftdruck Luftfeuchtigkeit
    00:00 +14°C° 0 mm 2 m/S 622 mmHg 69%
    01:00 +16°C° 0 mm 2 m/S 622 mmHg 65%
    02:00 +15°C° 0 mm 2 m/S 622 mmHg 68%
    03:00 +14°C° 0 mm 1 m/S 622 mmHg 71%
    04:00 +14°C° 0 mm 1 m/S 621 mmHg 74%
    05:00 +14°C° 0 mm 1 m/S 622 mmHg 74%
    06:00 +14°C° 0 mm 1 m/S 622 mmHg 75%
    07:00 +15°C° 0 mm 1 m/S 623 mmHg 74%
    08:00 +17°C° 0 mm 2 m/S 624 mmHg 64%
    09:00 +20°C° 0 mm 2 m/S 624 mmHg 54%
    10:00 +22°C° 0 mm 3 m/S 625 mmHg 44%
    11:00 +22°C° 0 mm 3 m/S 625 mmHg 43%
    12:00 +24°C° 0 mm 3 m/S 624 mmHg 43%
    13:00 +24°C° 0 mm 2 m/S 624 mmHg 42%
    14:00 +23°C° 0 mm 2 m/S 624 mmHg 44%
    15:00 +23°C° 0 mm 2 m/S 624 mmHg 46%
    16:00 +21°C° 0 mm 2 m/S 623 mmHg 48%
    17:00 +20°C° 0 mm 2 m/S 623 mmHg 52%
    18:00 +19°C° 0 mm 1 m/S 623 mmHg 55%
    19:00 +18°C° 0 mm 1 m/S 623 mmHg 59%
    20:00 +18°C° 0 mm 1 m/S 623 mmHg 59%
    21:00 +16°C° 0 mm 1 m/S 623 mmHg 60%
    22:00 +16°C° 0 mm 1 m/S 624 mmHg 61%
    23:00 +15°C° 0 mm 1 m/S 623 mmHg 62%

    Morgen, 27 Mai, Sonntag

    Zeit Temperatur Niederschläge Wind Luftdruck Luftfeuchtigkeit
    00:00 +15°C° 0 mm 1 m/S 623 mmHg 63%
    01:00 +15°C° 0 mm 1 m/S 623 mmHg 64%
    02:00 +14°C° 0 mm 1 m/S 623 mmHg 67%
    03:00 +14°C° 0 mm 1 m/S 623 mmHg 69%
    04:00 +13°C° 0 mm 1 m/S 623 mmHg 72%
    05:00 +13°C° 0 mm 1 m/S 623 mmHg 72%
    06:00 +14°C° 0 mm 1 m/S 623 mmHg 73%
    07:00 +14°C° 0 mm 1 m/S 624 mmHg 73%
    08:00 +17°C° 0 mm 2 m/S 625 mmHg 64%
    09:00 +19°C° 0 mm 2 m/S 626 mmHg 54%
    10:00 +22°C° 0 mm 3 m/S 626 mmHg 44%
    11:00 +24°C° 0 mm 3 m/S 626 mmHg 41%
    12:00 +24°C° 0 mm 2 m/S 626 mmHg 38%
    13:00 +25°C° 0 mm 2 m/S 626 mmHg 35%
    14:00 +25°C° 0 mm 2 m/S 625 mmHg 37%
    15:00 +24°C° 0 mm 2 m/S 625 mmHg 39%
    16:00 +24°C° 0 mm 1 m/S 625 mmHg 41%
    17:00 +22°C° 0 mm 1 m/S 624 mmHg 45%
    18:00 +20°C° 0 mm 1 m/S 624 mmHg 49%
    19:00 +18°C° 0 mm 1 m/S 624 mmHg 52%
    20:00 +16°C° 0 mm 1 m/S 624 mmHg 55%
    21:00 +16°C° 0 mm 1 m/S 624 mmHg 57%
    22:00 +15°C° 0 mm 1 m/S 625 mmHg 59%
    23:00 +15°C° 0 mm 1 m/S 625 mmHg 61%

    übermorgen, 28 Mai, Montag

    Zeit Temperatur Niederschläge Wind Luftdruck Luftfeuchtigkeit
    00:00 +14°C° 0 mm 1 m/S 624 mmHg 63%
    01:00 +14°C° 0 mm 1 m/S 624 mmHg 65%
    02:00 +13°C° 0 mm 1 m/S 624 mmHg 66%
    03:00 +13°C° 0 mm 1 m/S 624 mmHg 67%
    04:00 +13°C° 0 mm 1 m/S 624 mmHg 68%
    05:00 +13°C° 0 mm 1 m/S 624 mmHg 68%
    06:00 +14°C° 0 mm 1 m/S 624 mmHg 68%
    07:00 +14°C° 0 mm 1 m/S 625 mmHg 67%
    08:00 +17°C° 0 mm 2 m/S 626 mmHg 59%
    09:00 +20°C° 0 mm 2 m/S 627 mmHg 51%
    10:00 +22°C° 0 mm 3 m/S 628 mmHg 43%
    11:00 +24°C° 0 mm 2 m/S 627 mmHg 40%
    12:00 +25°C° 0 mm 2 m/S 627 mmHg 37%
    13:00 +26°C° 0 mm 2 m/S 627 mmHg 34%
    14:00 +26°C° 0 mm 1 m/S 626 mmHg 35%
    15:00 +25°C° 0 mm 1 m/S 625 mmHg 36%
    16:00 +25°C° 0 mm 1 m/S 625 mmHg 37%
    17:00 +23°C° 0 mm 1 m/S 624 mmHg 42%
    18:00 +21°C° 0 mm 1 m/S 624 mmHg 46%
    19:00 +18°C° 0 mm 1 m/S 624 mmHg 51%
    20:00 +18°C° 0 mm 1 m/S 624 mmHg 53%
    21:00 +15°C° 0 mm 0 m/S 624 mmHg 54%
    22:00 +14°C° 0 mm 0 m/S 624 mmHg 56%
    23:00 +14°C° 0 mm 0 m/S 624 mmHg 58%

    29 Mai, Dienstag

    Zeit Temperatur Niederschläge Wind Luftdruck Luftfeuchtigkeit
    00:00 +15°C° 0 mm 1 m/S 624 mmHg 59%
    01:00 +14°C° 0 mm 1 m/S 624 mmHg 61%
    02:00 +14°C° 0 mm 1 m/S 623 mmHg 63%
    03:00 +13°C° 0 mm 1 m/S 623 mmHg 66%
    04:00 +13°C° 0 mm 1 m/S 623 mmHg 69%
    05:00 +13°C° 0 mm 1 m/S 623 mmHg 70%
    06:00 +13°C° 0 mm 1 m/S 624 mmHg 70%
    07:00 +14°C° 0 mm 1 m/S 624 mmHg 71%
    08:00 +18°C° 0 mm 1 m/S 625 mmHg 61%
    09:00 +20°C° 0 mm 2 m/S 626 mmHg 51%
    10:00 +24°C° 0 mm 2 m/S 627 mmHg 42%
    11:00 +25°C° 0 mm 2 m/S 627 mmHg 38%
    12:00 +26°C° 0 mm 1 m/S 626 mmHg 35%
    13:00 +27°C° 0 mm 1 m/S 626 mmHg 32%
    14:00 +27°C° 0 mm 1 m/S 625 mmHg 32%
    15:00 +26°C° 0 mm 1 m/S 625 mmHg 33%
    16:00 +26°C° 0 mm 1 m/S 624 mmHg 33%
    17:00 +23°C° 0 mm 1 m/S 624 mmHg 38%
    18:00 +21°C° 0 mm 1 m/S 623 mmHg 44%
    19:00 +19°C° 0 mm 1 m/S 623 mmHg 49%
    20:00 +18°C° 0 mm 1 m/S 623 mmHg 49%
    21:00 +18°C° 0 mm 1 m/S 623 mmHg 50%
    22:00 +15°C° 0 mm 0 m/S 623 mmHg 50%
    23:00 +16°C° 0 mm 1 m/S 623 mmHg 51%

    30 Mai, Mittwoch

    Zeit Temperatur Niederschläge Wind Luftdruck Luftfeuchtigkeit
    00:00 +15°C° 0 mm 1 m/S 623 mmHg 52%
    01:00 +15°C° 0 mm 1 m/S 622 mmHg 53%
    02:00 +14°C° 0 mm 1 m/S 622 mmHg 56%
    03:00 +13°C° 0 mm 1 m/S 622 mmHg 59%
    04:00 +13°C° 0 mm 1 m/S 622 mmHg 62%
    05:00 +12°C° 0 mm 0 m/S 622 mmHg 63%
    06:00 +13°C° 0 mm 0 m/S 623 mmHg 63%
    07:00 +13°C° 0 mm 0 m/S 623 mmHg 64%
    08:00 +18°C° 0 mm 1 m/S 624 mmHg 56%
    09:00 +21°C° 0 mm 1 m/S 625 mmHg 48%
    10:00 +24°C° 0 mm 2 m/S 626 mmHg 40%
    11:00 +26°C° 0 mm 2 m/S 626 mmHg 37%
    12:00 +27°C° 0 mm 1 m/S 626 mmHg 34%
    13:00 +28°C° 0 mm 1 m/S 625 mmHg 31%
    14:00 +27°C° 0 mm 1 m/S 625 mmHg 31%
    15:00 +27°C° 0 mm 1 m/S 624 mmHg 32%
    16:00 +26°C° 0 mm 1 m/S 624 mmHg 33%
    17:00 +24°C° 0 mm 1 m/S 623 mmHg 38%
    18:00 +21°C° 0 mm 1 m/S 623 mmHg 43%
    19:00 +19°C° 0 mm 1 m/S 623 mmHg 48%
    20:00 +19°C° 0 mm 1 m/S 623 mmHg 48%
    21:00 +18°C° 0 mm 1 m/S 623 mmHg 48%
    22:00 +18°C° 0 mm 1 m/S 623 mmHg 48%
    23:00 +16°C° 0 mm 1 m/S 623 mmHg 49%

    31 Mai, Donnerstag

    Zeit Temperatur Niederschläge Wind Luftdruck Luftfeuchtigkeit
    00:00 +15°C° 0 mm 0 m/S 623 mmHg 50%
    01:00 +14°C° 0 mm 0 m/S 622 mmHg 50%
    02:00 +15°C° 0 mm 1 m/S 622 mmHg 52%
    03:00 +14°C° 0 mm 1 m/S 622 mmHg 54%
    04:00 +14°C° 0 mm 1 m/S 622 mmHg 56%
    05:00 +14°C° 0 mm 1 m/S 622 mmHg 58%
    06:00 +14°C° 0 mm 1 m/S 623 mmHg 59%
    07:00 +14°C° 0 mm 1 m/S 623 mmHg 61%
    08:00 +19°C° 0 mm 1 m/S 624 mmHg 53%
    09:00 +21°C° 0 mm 2 m/S 625 mmHg 45%
    10:00 +25°C° 0 mm 2 m/S 626 mmHg 37%
    11:00 +26°C° 0 mm 2 m/S 626 mmHg 34%
    12:00 +27°C° 0 mm 2 m/S 626 mmHg 31%
    13:00 +28°C° 0 mm 2 m/S 625 mmHg 28%
    14:00 +28°C° 0 mm 2 m/S 625 mmHg 29%
    15:00 +27°C° 0 mm 2 m/S 624 mmHg 30%
    16:00 +27°C° 0 mm 2 m/S 624 mmHg 31%
    17:00 +24°C° 0 mm 1 m/S 624 mmHg 36%
    18:00 +22°C° 0 mm 1 m/S 623 mmHg 41%
    19:00 +19°C° 0 mm 1 m/S 623 mmHg 46%
    20:00 +19°C° 0 mm 1 m/S 624 mmHg 47%
    21:00 +18°C° 0 mm 1 m/S 624 mmHg 47%
    22:00 +18°C° 0 mm 1 m/S 624 mmHg 48%
    23:00 +16°C° 0 mm 1 m/S 624 mmHg 50%
    Mehr zeigen